Location: Cudham
(51.3000°N, 0.0667°E)
Time: 00:20:43
(UTC+00:00)

USA 234 - Pass Details

Date: 15 May 2026
Orbit: 1102 x 1106 km, 123.0° (Epoch: 4 January)

Event Time Altitude Azimuth Distance (km) Brightness Sun altitude
Rises 22:40:25 0° 60° (ENE) 3,926 6.3 -17.7°
Reaches altitude 10° 22:43:24 10° 73° (ENE) 2,965 5.5 -17.9°
Maximum altitude 22:48:43 26° 128° (SE) 2,024 4.2 -18.1°
Enters shadow 22:49:36 25° 140° (SE) 2,056 4.2 -18.2°
